Location: Finkenbach
(49.5340°N, 8.9188°E)
Time: 15:15:06
(UTC+00:00)

NOSS 3-4 (A) - Pass Details

Date: 17 June 2025
Orbit: 763 x 1448 km, 63.4° (Epoch: 11 July)

Event Time Altitude Azimuth Distance (km) Brightness Sun altitude
Rises 20:31:13 0° 238° (WSW) 3,236 6.3 -7.4°
Reaches altitude 10° 20:33:34 10° 242° (WSW) 2,341 5.7 -7.7°
Maximum altitude 20:38:48 55° 321° (NW) 1,004 4.1 -8.2°
Drops below altitude 10° 20:44:43 10° 39° (NE) 2,645 6.0 -8.8°
Sets 20:47:31 0° 44° (NE) 3,695 6.7 -9.1°
